Location: Newark
(40.7119°N, 74.0097°W)
Time: 05:33:56
(UTC+00:00)

Tiangong - Pass Details

Date: 30 June 2021
Orbit: 374 x 386 km, 41.5° (Epoch: 27 July)

Event Time Altitude Azimuth Distance (km) Brightness Sun altitude
Exits shadow 08:27:08 - 268° (W) 1,420 3.5 -10.0°
Reaches altitude 10° 08:27:15 10° 267° (W) 1,382 3.4 -10.0°
Maximum altitude 08:29:58 28° 206° (SSW) 746 2.0 -9.6°
Drops below altitude 10° 08:32:42 10° 145° (SE) 1,384 3.8 -9.3°
Sets 08:34:55 0° 133° (SE) 2,236 5.0 -8.9°
